Flag for United Kingdom Weather past 2 weeks in Crawley, England, United Kingdom

Now
59 °F

Partly sunny.


Feels Like: 57 °F
Forecast: 43 / 64 °F
Wind: 12 mph from North

Location: London / Gatwick Airport

Current Time: Sep 5, 2015 at 3:38:58 PM

Latest Report: Sep 5, 2015 at 3:20 PM


Visibility: N/A

Pressure: 30.21 "Hg

Humidity: 68%

Dew point: 48 °F

Location of CrawleyLocation

Historic Weather in Crawley — Graph

°F

Crawley temperature yesterday

Maximum temperature yesterday: 61 °F (at 12:50 PM)
Minimum temperature yesterday: 46 °F (at 2:50 AM)
Average temperature yesterday: 54 °F

Past Weeks' High & Low Weather Summary

 TemperatureHumidityPressure
High82 °F (Aug 22, 3:50 PM)100% (Aug 22, 12:20 AM)30.18 "Hg (Aug 22, 12:20 AM)
Low45 °F (Aug 28, 5:20 AM)45% (Aug 22, 4:20 PM)29.39 "Hg (Aug 24, 1:20 PM)
Average59 °F84%29.91 "Hg
* Reported Aug 21 2:20 PM — Sep 5 2:20 PM, Crawley, Weather by CustomWeather, © 2015

Note: Actual official high and low records may vary slightly from our data, if they occured in-between our weather recording intervals... More about our weather records

Advertising

Crawley weather history for previous 24 hours

 ConditionsComfort  
Time TempWeatherWind HumidityBarometerVisibility
2:20 PM
Sat, Sep 5
57 °FPartly sunny.10 mph77%30.18 "HgN/A
1:50 PM57 °FPartly sunny.8 mph77%30.18 "HgN/A
1:20 PM55 °FPartly sunny.12 mph88%30.18 "HgN/A
12:50 PM57 °FPartly sunny.10 mph82%30.18 "HgN/A
12:20 PM57 °FPartly sunny.14 mph82%30.15 "HgN/A
11:50 AM57 °FPartly sunny.8 mph82%30.15 "HgN/A
11:20 AM57 °FPartly sunny.8 mph82%30.15 "HgN/A
10:50 AM57 °FScattered showers. Partly sunny.8 mph82%30.12 "HgN/A
10:20 AM55 °FPartly sunny.9 mph88%30.12 "HgN/A
9:50 AM55 °FPartly sunny.9 mph94%30.12 "HgN/A
9:20 AM55 °FPartly sunny.9 mph88%30.09 "HgN/A
8:50 AM55 °FBroken clouds.8 mph88%30.09 "HgN/A
8:20 AM54 °FBroken clouds.6 mph94%30.09 "HgN/A
7:50 AM52 °FScattered clouds.7 mph100%30.09 "HgN/A
7:20 AM50 °FLight rain. Broken clouds.3 mph100%30.09 "Hg5 mi
6:50 AM50 °FFog.3 mph94%30.09 "Hg2 mi
6:20 AM48 °FPassing clouds.5 mph100%30.07 "HgN/A
5:50 AM48 °FPassing clouds.3 mph94%30.07 "HgN/A
5:20 AM46 °FPassing clouds.2 mph93%30.07 "HgN/A
4:20 AM45 °FClear.3 mph93%30.07 "Hg10 mi
3:50 AM45 °FClear.3 mph93%30.07 "Hg10 mi
3:20 AM45 °FClear.2 mph100%30.07 "Hg10 mi
2:50 AM46 °FClear.2 mph93%30.07 "Hg10 mi
2:20 AM46 °FClear.2 mph100%30.09 "Hg10 mi
1:50 AM50 °FPassing clouds.No wind88%30.09 "HgN/A
1:20 AM50 °FPassing clouds.No wind94%30.09 "HgN/A
12:50 AM50 °FPassing clouds.No wind94%30.09 "HgN/A
12:20 AM50 °FClear.2 mph88%30.09 "Hg10 mi
11:50 PM
Fri, Sep 4
52 °FClear.3 mph88%30.09 "Hg10 mi
11:20 PM54 °FClear.2 mph77%30.09 "Hg10 mi
10:20 PM55 °FPassing clouds.5 mph72%30.09 "HgN/A
9:50 PM54 °FClear.5 mph77%30.09 "Hg10 mi
9:20 PM54 °FClear.5 mph77%30.09 "Hg10 mi
8:50 PM54 °FClear.6 mph77%30.07 "Hg10 mi
8:20 PM55 °FSunny.7 mph72%30.07 "Hg10 mi
7:50 PM57 °FPassing clouds.6 mph67%30.07 "HgN/A
7:20 PM57 °FPassing clouds.7 mph72%30.07 "HgN/A
6:50 PM57 °FPassing clouds.7 mph77%30.07 "HgN/A
6:20 PM57 °FPassing clouds.6 mph72%30.07 "HgN/A
5:50 PM57 °FBroken clouds.5 mph67%30.04 "HgN/A
5:20 PM57 °FPartly sunny.6 mph72%30.04 "HgN/A
4:50 PM59 °FPartly sunny.6 mph68%30.04 "HgN/A
4:20 PM59 °FPassing clouds.8 mph68%30.04 "HgN/A
3:50 PM59 °FScattered clouds.7 mph63%30.04 "HgN/A
3:20 PM59 °FScattered clouds.10 mph68%30.07 "HgN/A
Weather by CustomWeather, © 2015

See weather overviewHow to use our weather pages